Weather History for Marietta, GA

Change the Weather History Date:

Tuesday, November 6, 2012

  Actual Average Record
Temperature  
Mean Temperature 47 °F -  
Max Temperature 50 °F 62 °F 75 °F (2005)
Min Temperature 44 °F 45 °F 33 °F (1998)
Degree Days  
Heating Degree Days 18    
Moisture  
Dew Point 45 °F    
Average Humidity 88    
Maximum Humidity 100    
Minimum Humidity 70    
Precipitation  
Precipitation 0.59 in - - ()
Sea Level Pressure  
Sea Level Pressure 29.95 in    
Wind  
Wind Speed 4 mph (ENE)    
Max Wind Speed 14 mph    
Max Gust Speed 22 mph    
Visibility 8 miles    
Events Rain    
Averages and records for this station are not official NWS values.
T = Trace of Precipitation, MM = Missing Value Source: NWS Daily Summary

Daily Weather History Graph

Daily Weather History Graph

Search for Another Location

Airport:

Trip Planner

Search our weather history database for the weather conditions in past years. The results will help you decide how hot, cold, wet, or windy it might be!

Date:

Astronomy

Nov. 06, 2012 Rise Set
Actual Time 7:02 AM EST 5:40 PM EST
Civil Twilight 6:36 AM EST 6:06 PM EST
Nautical Twilight 6:06 AM EST 6:36 PM EST
Astronomical Twilight 5:37 AM EST 7:05 PM EST
Moon No Moon Rise 12:56 PM EST (11/6)
Length of Visible Light 11h 30m
Length of Day
10h 38m
Waning Gibbous, 53% of the Moon is Illuminated
Nov 6
Waning Gibbous
Nov 6
Last Quarter
Nov 13
New
Nov 20
First Quarter
Nov 28
Full

Hourly Weather History & Observations

Time (EST) Temp. Windchill Dew Point Humidity Pressure Visibility Wind Dir Wind Speed Gust Speed Precip Events Conditions
12:05 AM 50.0 °F - 42.8 °F 76% 29.95 in 10.0 mi East 3.5 mph - N/A   Overcast
12:15 AM 50.0 °F - 42.8 °F 76% 29.94 in 10.0 mi Calm Calm - N/A Rain Light Rain
12:42 AM 50.0 °F - 44.6 °F 82% 29.95 in 10.0 mi Calm Calm - N/A   Overcast
12:55 AM 50.2 °F - 44.1 °F 79% 29.96 in 10.0 mi Calm Calm - 0.00 in   Light Drizzle
1:12 AM 50.0 °F - 46.4 °F 87% 29.96 in 6.0 mi Calm Calm - N/A Rain Light Rain
1:14 AM 50.0 °F - 44.6 °F 82% 29.96 in 5.0 mi Calm Calm - N/A Rain Light Rain
1:24 AM 50.0 °F - 46.4 °F 87% 29.97 in 4.0 mi Calm Calm - N/A Rain Rain
1:29 AM 50.0 °F - 46.4 °F 87% 29.97 in 4.0 mi Calm Calm - N/A Rain Rain
1:55 AM 49.1 °F - 46.6 °F 91% 29.96 in 5.0 mi Calm Calm - 0.11 in Rain Light Rain
2:08 AM 48.2 °F - 46.4 °F 93% 29.96 in 5.0 mi Calm Calm - N/A Rain Light Rain
2:11 AM 48.2 °F - 46.4 °F 93% 29.96 in 6.0 mi Calm Calm - N/A Rain Light Rain
2:21 AM 48.2 °F - 46.4 °F 93% 29.96 in 7.0 mi Calm Calm - N/A Rain Light Rain
2:23 AM 48.2 °F - 46.4 °F 93% 29.95 in 6.0 mi Calm Calm - N/A Rain Light Rain
2:30 AM 48.2 °F - 46.4 °F 93% 29.95 in 7.0 mi Calm Calm - N/A Rain Light Rain
2:32 AM 50.0 °F - 46.4 °F 87% 29.95 in 7.0 mi Calm Calm - N/A Rain Light Rain
2:43 AM 48.2 °F - 46.4 °F 93% 29.94 in 5.0 mi ENE 3.5 mph - N/A Rain Rain
2:45 AM 48.2 °F - 46.4 °F 93% 29.94 in 5.0 mi NE 3.5 mph - N/A Rain Light Rain
2:46 AM 48.2 °F - 46.4 °F 93% 29.94 in 5.0 mi NE 3.5 mph - N/A Rain Light Rain
2:48 AM 48.2 °F - 46.4 °F 93% 29.94 in 5.0 mi Calm Calm - N/A Rain Light Rain
2:51 AM 48.2 °F - 46.4 °F 93% 29.94 in 5.0 mi Calm Calm - N/A Rain Light Rain
2:54 AM 48.2 °F - 46.4 °F 93% 29.94 in 5.0 mi ENE 3.5 mph - N/A Rain Light Rain
2:55 AM 48.6 °F - 46.9 °F 94% 29.94 in 6.0 mi ENE 3.5 mph - 0.08 in Rain Light Rain
2:59 AM 48.2 °F - 46.4 °F 93% 29.94 in 6.0 mi Calm Calm - N/A Rain Light Rain
3:03 AM 48.2 °F - 48.2 °F 100% 29.94 in 7.0 mi Calm Calm - N/A Rain Light Rain
3:04 AM 48.2 °F - 48.2 °F 100% 29.94 in 7.0 mi Calm Calm - N/A Rain Light Rain
3:06 AM 48.2 °F - 48.2 °F 100% 29.94 in 7.0 mi ENE 3.5 mph - N/A Rain Light Rain
3:09 AM 48.2 °F - 48.2 °F 100% 29.93 in 7.0 mi NE 3.5 mph - N/A Rain Light Rain
3:10 AM 48.2 °F - 48.2 °F 100% 29.93 in 7.0 mi Calm Calm - N/A Rain Light Rain
3:11 AM 48.2 °F - 48.2 °F 100% 29.94 in 7.0 mi ENE 3.5 mph - N/A Rain Light Rain
3:16 AM 48.2 °F - 48.2 °F 100% 29.93 in 6.0 mi Calm Calm - N/A Rain Light Rain
3:20 AM 48.2 °F - 48.2 °F 100% 29.93 in 5.0 mi Calm Calm - N/A Rain Light Rain
3:23 AM 48.2 °F - 48.2 °F 100% 29.93 in 5.0 mi Calm Calm - N/A Rain Light Rain
3:27 AM 50.0 °F - 48.2 °F 94% 29.93 in 5.0 mi ENE 3.5 mph - N/A Rain Light Rain
3:34 AM 50.0 °F - 48.2 °F 94% 29.92 in 6.0 mi ENE 3.5 mph - N/A Rain Light Rain
3:55 AM 49.6 °F - 48.9 °F 97% 29.92 in 6.0 mi East 4.6 mph - 0.03 in   Light Drizzle
3:58 AM 50.0 °F - 48.2 °F 94% 29.92 in 6.0 mi East 6.9 mph - N/A   Light Drizzle
4:05 AM 50.0 °F - 48.2 °F 94% 29.92 in 8.0 mi East 6.9 mph - N/A   Light Drizzle
4:09 AM 50.0 °F - 48.2 °F 94% 29.92 in 9.0 mi East 8.1 mph - N/A   Overcast
4:35 AM 50.0 °F - 48.2 °F 94% 29.92 in 7.0 mi ESE 9.2 mph - N/A Rain Light Rain
4:40 AM 50.0 °F - 48.2 °F 94% 29.92 in 5.0 mi East 10.4 mph - N/A Rain Light Rain
4:41 AM 50.0 °F - 48.2 °F 94% 29.92 in 4.0 mi East 9.2 mph - N/A Rain Light Rain
4:43 AM 50.0 °F - 48.2 °F 94% 29.91 in 5.0 mi East 10.4 mph - N/A Rain Light Rain
4:47 AM 50.0 °F - 48.2 °F 94% 29.91 in 6.0 mi East 10.4 mph - N/A Rain Light Rain
4:55 AM 49.8 °F - 48.7 °F 96% 29.91 in 10.0 mi East 11.5 mph - 0.02 in   Overcast
5:05 AM 50.0 °F - 48.2 °F 94% 29.91 in 10.0 mi East 6.9 mph - N/A   Overcast
5:43 AM 50.0 °F - 48.2 °F 94% 29.92 in 10.0 mi East 11.5 mph - N/A   Overcast
5:55 AM 49.8 °F - 48.2 °F 94% 29.91 in 10.0 mi East 13.8 mph 21.9 mph N/A   Overcast
6:25 AM 50.0 °F - 48.2 °F 94% 29.91 in 10.0 mi East 8.1 mph 16.1 mph N/A Rain Light Rain
6:55 AM 49.3 °F - 47.8 °F 95% 29.93 in 7.0 mi East 9.2 mph 19.6 mph 0.01 in Rain Light Rain
7:03 AM 48.2 °F - 48.2 °F 100% 29.93 in 3.0 mi ENE 10.4 mph 19.6 mph N/A Rain Light Rain
7:36 AM 46.4 °F 42.9 °F 44.6 °F 93% 29.96 in 3.0 mi ENE 6.9 mph 21.9 mph N/A Rain Light Rain
7:55 AM 45.3 °F 40.6 °F 43.5 °F 93% 29.97 in 3.0 mi ENE 9.2 mph 16.1 mph 0.12 in Rain Rain
8:02 AM 44.6 °F 40.2 °F 42.8 °F 93% 29.97 in 2.5 mi ENE 8.1 mph 16.1 mph N/A Rain Rain
8:07 AM 44.6 °F 40.7 °F 42.8 °F 93% 29.97 in 3.0 mi Variable 6.9 mph - N/A Rain Light Rain
8:49 AM 44.6 °F 39.7 °F 42.8 °F 93% 29.98 in 5.0 mi ENE 9.2 mph - N/A Rain Light Rain
8:55 AM 44.6 °F 40.2 °F 42.8 °F 93% 29.99 in 5.0 mi East 8.1 mph - 0.12 in Rain Light Rain
9:55 AM 44.8 °F 40.4 °F 42.8 °F 93% 30.00 in 5.0 mi ENE 8.1 mph - 0.08 in Rain Light Rain
10:39 AM 44.6 °F 38.1 °F 42.8 °F 93% 29.99 in 9.0 mi East 13.8 mph 19.6 mph N/A Rain Light Rain
10:55 AM 45.7 °F 40.6 °F 43.2 °F 91% 29.99 in 10.0 mi East 10.4 mph 18.4 mph 0.02 in   Light Drizzle
11:08 AM 46.4 °F 42.9 °F 42.8 °F 87% 29.99 in 10.0 mi East 6.9 mph 18.4 mph N/A   Overcast
11:09 AM 46.4 °F 42.9 °F 42.8 °F 87% 29.99 in 10.0 mi East 6.9 mph 18.4 mph N/A   Overcast
11:31 AM 46.4 °F 42.4 °F 44.6 °F 93% 29.99 in 10.0 mi East 8.1 mph - N/A   Overcast
11:35 AM 46.4 °F 42.4 °F 42.8 °F 87% 29.99 in 10.0 mi East 8.1 mph - N/A   Overcast
11:39 AM 46.4 °F 41.9 °F 42.8 °F 87% 29.99 in 10.0 mi East 9.2 mph - N/A   Overcast
11:41 AM 46.4 °F 41.9 °F 42.8 °F 87% 29.99 in 10.0 mi East 9.2 mph - N/A   Overcast
11:55 AM 47.8 °F - 43.3 °F 84% 29.99 in 10.0 mi ENE 8.1 mph - 0.00 in   Overcast
12:08 PM 48.2 °F - 42.8 °F 82% 29.98 in 10.0 mi East 13.8 mph - N/A   Overcast
12:11 PM 48.2 °F - 42.8 °F 82% 29.98 in 10.0 mi East 9.2 mph 18.4 mph N/A   Overcast
12:16 PM 48.2 °F - 42.8 °F 82% 29.98 in 10.0 mi East 8.1 mph 18.4 mph N/A   Overcast
12:17 PM 48.2 °F - 42.8 °F 82% 29.98 in 10.0 mi East 11.5 mph - N/A   Overcast
12:21 PM 48.2 °F - 42.8 °F 82% 29.97 in 10.0 mi East 11.5 mph - N/A   Overcast
12:24 PM 48.2 °F - 41.0 °F 76% 29.97 in 10.0 mi East 6.9 mph - N/A   Overcast
12:28 PM 48.2 °F - 42.8 °F 82% 29.97 in 10.0 mi East 8.1 mph - N/A   Overcast
12:30 PM 48.2 °F - 42.8 °F 82% 29.97 in 10.0 mi East 9.2 mph - N/A   Overcast
12:46 PM 48.2 °F - 41.0 °F 76% 29.97 in 10.0 mi East 6.9 mph - N/A   Overcast
12:55 PM 47.8 °F - 41.9 °F 80% 29.97 in 10.0 mi Variable 6.9 mph - N/A   Overcast
1:10 PM 48.2 °F - 41.0 °F 76% 29.96 in 10.0 mi Variable 5.8 mph - N/A   Overcast
1:50 PM 48.2 °F - 41.0 °F 76% 29.96 in 10.0 mi ENE 4.6 mph - N/A   Overcast
1:55 PM 48.2 °F - 41.2 °F 77% 29.95 in 10.0 mi ENE 3.5 mph - N/A   Overcast
2:07 PM 48.2 °F - 41.0 °F 76% 29.96 in 10.0 mi ENE 5.8 mph - N/A   Overcast
2:55 PM 49.1 °F - 41.0 °F 74% 29.94 in 10.0 mi East 4.6 mph - N/A   Overcast
3:55 PM 49.5 °F - 40.5 °F 71% 29.95 in 10.0 mi Calm Calm - N/A   Overcast
4:55 PM 49.3 °F - 39.9 °F 70% 29.96 in 10.0 mi Calm Calm - N/A   Overcast
5:45 PM 48.2 °F - 41.0 °F 76% 29.95 in 10.0 mi Calm Calm - N/A   Overcast
5:55 PM 48.9 °F - 40.1 °F 72% 29.95 in 10.0 mi Calm Calm - N/A   Overcast
6:55 PM 48.9 °F - 40.3 °F 72% 29.96 in 10.0 mi Calm Calm - N/A   Overcast
7:55 PM 48.9 °F - 40.8 °F 74% 29.97 in 10.0 mi Calm Calm - N/A   Overcast
8:55 PM 48.0 °F - 41.7 °F 79% 29.98 in 10.0 mi WNW 3.5 mph - N/A   Overcast
9:55 PM 48.0 °F - 41.7 °F 79% 29.98 in 10.0 mi NW 4.6 mph - N/A   Overcast
10:55 PM 47.8 °F - 42.1 °F 80% 29.97 in 10.0 mi NNW 3.5 mph - N/A   Overcast
11:55 PM 47.7 °F - 42.4 °F 82% 29.96 in 10.0 mi Calm Calm - N/A   Overcast